This demonstration page uses our WeatherBlox Daily Observations layout. Learn more.

Left ArrowRight Arrow

44.89941, -97.11507

Hourly Observations for June 26, 2016

Temp ( °F °C ) Dew Point ( °F °C ) Humidity (%) Winds ( mph kmh ) Pressure ( in mb ) Visibility ( mi km ) Precip ( " mm )
12:53 am 00:53 Clear 69 20.6 45 7.2 42 42 W 8 13 29.93 1014 10 16 0.00 0.00
1:53 am 01:53 Clear 65 18.3 46 7.8 51 51 W 8 13 29.93 1013 10 16 0.00 0.00
2:53 am 02:53 Clear 66 18.9 46 7.8 49 49 WNW 8 13 29.94 1014 10 16 0.00 0.00
3:53 am 03:53 Clear 66 18.9 46 7.8 49 49 W 8 13 29.95 1014 10 16 0.00 0.00
4:53 am 04:53 Clear 61 16.1 46 7.8 58 58 W 7 11 29.96 1015 10 16 0.00 0.00
5:53 am 05:53 Sunny 62 16.7 46 7.8 56 56 W 9 15 29.95 1014 10 16 0.00 0.00
6:53 am 06:53 Sunny 66 18.9 46 7.8 49 49 W 12 19 29.96 1015 10 16 0.00 0.00
7:53 am 07:53 Sunny 67 19.4 47 8.3 49 49 W 14 22 29.97 1015 10 16 0.00 0.00
8:53 am 08:53 Sunny 72 22.2 48 8.9 43 43 W 22 35 29.98 1015 10 16 0.00 0.00
9:53 am 09:53 Sunny 75 23.9 50 10 41 41 W 22 35 29.99 1016 10 16 0.00 0.00
10:53 am 10:53 Sunny 78 25.6 50 10 37 37 W 18 30 29.99 1016 10 16 0.00 0.00
11:53 am 11:53 Sunny 81 27.2 50 10 34 34 W 20 31 29.99 1016 10 16 0.00 0.00
12:53 pm 12:53 Sunny 83 28.3 48 8.9 30 30 W 22 35 29.99 1016 10 16 0.00 0.00
1:53 pm 13:53 Sunny 85 29.4 47 8.3 27 27 W 21 33 29.99 1016 10 16 0.00 0.00
2:53 pm 14:53 Sunny 87 30.6 46 7.8 24 24 W 24 39 29.99 1016 10 16 0.00 0.00
3:53 pm 15:53 Sunny 87 30.6 44 6.7 22 22 WNW 23 37 29.98 1015 10 16 0.00 0.00
4:53 pm 16:53 Sunny 87 30.6 44 6.7 22 22 W 17 28 29.99 1016 10 16 0.00 0.00
5:53 pm 17:53 Sunny 86 30 45 7.2 24 24 W 18 30 29.98 1015 10 16 0.00 0.00
6:53 pm 18:53 Sunny 86 30 45 7.2 24 24 W 16 26 29.97 1015 10 16 0.00 0.00
7:53 pm 19:53 Sunny 83 28.3 48 8.9 30 30 WNW 12 19 29.98 1015 10 16 0.00 0.00
8:53 pm 20:53 Sunny 79 26.1 51 10.6 38 38 NW 9 15 30.00 1016 10 16 0.00 0.00
9:53 pm 21:53 Clear 74 23.3 53 11.7 48 48 N 12 19 30.04 1017 10 16 0.00 0.00
10:53 pm 22:53 Clear 69 20.6 54 12.2 59 59 N 8 13 30.07 1018 10 16 0.00 0.00
11:53 pm 23:53 Clear 67 19.4 54 12.2 63 63 NNW 7 11 30.08 1019 10 16 0.00 0.00

Powered by AerisWeather